Terminal Aerodrome Forecast
Issued by NWS Jacksonville, FL

Home | Current Version | Previous Version | Text Only | Print | Product List | Glossary On
Versions: 1 2 3 4 5 6 7 8 9 10 11 12 13 14 15 16 17 18 19 20 21 22 23 24
000
FTUS42 KJAX 220500
TAFGNV
TAF
KGNV 220520Z 2206/2306 VRB03KT P6SM SCT100 BKN150
      TEMPO 2209/2211 4SM BR
     FM221400 VRB04KT P6SM SCT030 BKN070
     FM221700 19008KT P6SM VCTS BKN035CB
     FM222300 VRB03KT P6SM BKN050=

USA.gov is the U.S. government's official web portal to all federal, state and local government web resources and services.